Regional Weather Roundup
Issued by NWS

Home | Current Version | Previous Version | Graphics & Text | Print | Product List | Glossary On
Versions: 1 2 3 4 5 6 7 8 9 10 11 12 13 14 15 16 17 18 19 20 21 22 23 24 25 26 27 28 29 30 31 32 33 34 35 36 37 38 39 40 41 42 43 44 45 46 47 48 49 50
000
ASUS43 KLSX 281007
RWRMO
STLRWRMO ALL

WEATHER SUMMARY FOR MISSOURI
NATIONAL WEATHER SERVICE SPRINGFIELD MO
500 AM CDT SUN MAY 28 2017

NOTE: "FAIR" INDICATES FEW OR NO CLOUDS BELOW 12,000 FEET WITH NO
       SIGNIFICANT WEATHER AND/OR OBSTRUCTIONS TO VISIBILITY.
       CURRENT SKY AND/OR WEATHER CONDITIONS ARE NOT AVAILABLE FOR
       CHILLICOTHE AND FARMINGTON.

MOZ001>031-035>038-043-044-053-054-281100-
...NORTHERN AND WESTERN MISSOURI...

CITY           SKY/WX    TMP DP  RH WIND       PRES   REMARKS
KANSAS CTY INT PTCLDY    58  57  97 NW8       29.86F
KANSAS C DTWN  CLOUDY    61  59  93 NW5       29.85F
LEE`S SUMMIT   CLOUDY    60  60 100 NW8       29.85F
ST JOSEPH      CLEAR     59  58  96 N9        29.87F
CHILLICOTHE      N/A     58  55  90 CALM      29.85S
KIRKSVILLE     CLOUDY    58  56  93 NW8       29.81F

$$
MOZ066>068-077>081-088>096-101>105-281100-
...SOUTHWEST MISSOURI...

CITY           SKY/WX    TMP DP  RH WIND       PRES   REMARKS
SPRINGFIELD    CLOUDY    63  62  97 N10       29.80F
JOPLIN         CLOUDY    64  62  93 N6        29.81F
BRANSON        CLOUDY    63  63 100 CALM      29.85R

$$
MOZ032>034-039>042-045>050-055>058-069>072-281100-
...CENTRAL MISSOURI...

CITY           SKY/WX    TMP DP  RH WIND       PRES   REMARKS
COLUMBIA       CLOUDY    60  60 100 NW6       29.79R
JEFFERSON CITY CLOUDY    62  59  90 CALM      29.78F
ROLLA          CLOUDY    57  57 100 CALM      29.77F
SEDALIA        CLOUDY    63  63 100 NW10      29.84R
WHITEMAN AFB   CLOUDY    61  61 100 NW8       29.83R
WARRENSBURG    CLOUDY    61  57  88 NW6       29.84S
OSAGE BEACH    FOG       60  60 100 W5        29.81R VSB 1/4

$$
MOZ051-052-059>065-281100-
...EAST CENTRAL MISSOURI...

CITY           SKY/WX    TMP DP  RH WIND       PRES   REMARKS
ST LOUIS INTL  CLOUDY    65  60  84 W7        29.77R
SPIRIT OF STL  CLOUDY    61  60  97 CALM      29.76S
ST CHARLES     CLOUDY    63  62  97 W7        29.76R

$$
MOZ072>076-082>087-097>100-106>115-281100-
...SOUTH CENTRAL AND SOUTHEAST MISSOURI...

CITY           SKY/WX    TMP DP  RH WIND       PRES   REMARKS
CAPE GIRARDEAU CLOUDY    63  61  93 S6        29.77F
POPLAR BLUFF   CLOUDY    65  63  93 NW7         N/A
WEST PLAINS    CLOUDY    62  61  96 SW5       29.84R

$$




USA.gov is the U.S. government's official web portal to all federal, state and local government web resources and services.